Location: Costa Mesa
(33.6411°N, 117.9187°W)
Time: 03:15:43
(UTC+00:00)

COSMOS 2428 - Pass Details

Date: 10 September 2024
Orbit: 843 x 857 km, 70.9° (Epoch: 10 October)

Event Time Altitude Azimuth Distance (km) Brightness Sun altitude
Rises 13:03:01 0° 342° (NNW) 3,434 5.8 -6.8°
Reaches altitude 10° 13:05:31 10° 346° (NNW) 2,494 5.1 -6.3°
Maximum altitude 13:11:12 63° 67° (ENE) 948 3.4 -5.2°
Drops below altitude 10° 13:16:51 10° 149° (SSE) 2,477 5.5 -4.0°
Sets 13:19:19 0° 152° (SSE) 3,408 6.1 -3.5°
